Regional Weather Roundup
Issued by NWS

Home | Current Version | Previous Version | Text Only | Print | Product List | Glossary Off
Versions: 1 2 3 4 5 6 7 8 9 10 11 12 13 14 15 16 17 18 19 20 21 22 23 24 25 26 27

000
ASUS45 KBOI 281710
RWRID

IDAHO REGIONAL WEATHER ROUNDUP
NATIONAL WEATHER SERVICE BOISE ID
1100 AM MDT WED SEP 28 2016

NOTE: "FAIR" INDICATES FEW OR NO CLOUDS BELOW 12000 FEET
WITH NO SIGNIFICANT WEATHER AND/OR OBSTRUCTIONS TO VISIBILITY

IDZ012-014-281800-
SOUTHWEST IDAHO


CITY           SKY/WX    TMP DP  RH WIND       PRES   REMARKS
BOISE          SUNNY     73  40  30 E8        30.06S
CALDWELL       SUNNY     72  47  40 SE12      30.04F
MOUNTAIN HOME  SUNNY     68  47  47 SE17      30.07S
$$

IDZ016-017-281800-
SOUTHCENTRAL IDAHO


CITY           SKY/WX    TMP DP  RH WIND       PRES   REMARKS
BURLEY         SUNNY     63  49  60 E12       30.15F
JEROME         SUNNY     70  45  40 E13G23    30.14R
TWIN FALLS     SUNNY     63  47  55 E6        30.14F
$$

IDZ019>023-281800-
SOUTHEAST IDAHO


CITY           SKY/WX    TMP DP  RH WIND       PRES   REMARKS
IDAHO FALLS    SUNNY     63  46  54 N6        30.23S
POCATELLO      SUNNY     63  47  55 NE5       30.21F
REXBURG        SUNNY     59  45  59 NE5       30.24F
$$

IDZ006-010-011-018-031-032-281800-
CENTRAL IDAHO MOUNTAINS


CITY           SKY/WX    TMP DP  RH WIND       PRES   REMARKS
MCCALL         SUNNY     59  42  53 CALM      30.16F
HAILEY         SUNNY     64  39  39 NW12      30.24F
STANLEY          N/A     53  37  54 N3        30.31F
SALMON         SUNNY     57  43  58 CALM      30.21S
CHALLIS        SUNNY     60  38  43 CALM      30.24F
$$

IDZ002-004-006-007-026-281800-
NORTHERN IDAHO


CITY           SKY/WX    TMP DP  RH WIND       PRES   REMARKS
LEWISTON       SUNNY     66  48  52 CALM      30.00F
LOWELL           N/A     62  51  67 CALM      30.05F
COEUR D`ALENE  SUNNY     63  44  50 NE15      30.06F
MULLAN PASS    SUNNY     56  42  59 S9G20     30.20R
$$




USA.gov is the U.S. government's official web portal to all federal, state and local government web resources and services.